{"data":{"norad_id":66601,"intl_designator":"2025-270P","name":"STARLINK-35978","alt_names":[],"object_type":"PAYLOAD","status":"ACTIVE","operator":null,"country":"US","launch_date":"2025-11-22","launch_site_code":"AFETR","launch_vehicle":null,"mission":null,"orbit_class":"UNKNOWN","rcs_meters":null,"size_class":null,"mass_kg":null,"dimensions":null,"purposes":["comms"],"wikipedia_slug":null,"has_3d_model":false,"image_url":null,"decayed_at":null,"tle_current":{"epoch":"2026-09-20T20:22:38.920512Z","epoch_age_seconds":56299,"freshness":"FRESH","line1":"1 66601U 25270P   26263.84906158  .00017376  00000+0  63869-3 0  9993","line2":"2 66601  42.9993  33.9672 0001835 283.7360  76.3288 15.27619371 47392","mean_motion":15.27619371,"eccentricity":0.0001835,"inclination_deg":42.9993,"raan_deg":33.9672,"arg_perigee_deg":283.736,"mean_anomaly_deg":76.3288,"bstar":0.00063869,"rev_number":4739,"period_min":94.264319197351,"perigee_km":481.6722016179,"apogee_km":484.1902136501,"semimajor_km":6861.068207634,"source":"CELESTRAK","updated_at":"2026-09-21T09:00:35.978435Z"}}}